Weather History for Cork, Ireland

Change the Weather History Date:

Tuesday, May 14, 2013

  Actual Average Record
Temperature  
Mean Temperature 46 °F -  
Max Temperature 52 °F 59 °F 66 °F (1998)
Min Temperature 39 °F 46 °F 39 °F (2003)
Degree Days  
Heating Degree Days 20    
Moisture  
Dew Point 40 °F    
Average Humidity 84    
Maximum Humidity 100    
Minimum Humidity 54    
Precipitation  
Precipitation 0.08 in 0.10 in - ()
Sea Level Pressure  
Sea Level Pressure 29.56 in    
Wind  
Wind Speed 11 mph ()    
Max Wind Speed 26 mph    
Max Gust Speed 39 mph    
Visibility 6.5 miles    
Events Rain    
Averages and records for this station are not official NWS values.
T = Trace of Precipitation, MM = Missing Value Source: Averaged Metar Reports

Daily Weather History Graph

Daily Weather History Graph

Search for Another Location

Airport:

Trip Planner

Search our weather history database for the weather conditions in past years. The results will help you decide how hot, cold, wet, or windy it might be!

Date:

Astronomy

May. 14, 2013 Rise Set
Actual Time 5:42 AM IST 9:19 PM IST
Civil Twilight 5:00 AM IST 10:01 PM IST
Nautical Twilight 4:03 AM IST 10:58 PM IST
Astronomical Twilight 2:37 AM IST 12:27 AM IST
Moon 9:09 AM IST (5/14) 12:18 AM IST (5/14)
Length of Visible Light 17h 01m
Length of Day
15h 37m
Waxing Crescent, 17% of the Moon is Illuminated
May 14
Waxing Crescent
May 18
First Quarter
May 25
Full
May 31
Last Quarter
Jun 8
New

Hourly Weather History & Observations

Time (IST) Temp. Windchill Dew Point Humidity Pressure Visibility Wind Dir Wind Speed Gust Speed Precip Events Conditions
12:00 AM 42.8 °F 36.2 °F 39.2 °F 87% 29.83 in 6.2 mi WSW 12.7 mph - N/A   Mostly Cloudy
12:30 AM 42.8 °F 36.6 °F 37.4 °F 81% 29.80 in 6.2 mi WSW 11.5 mph - N/A   Mostly Cloudy
1:00 AM 42 °F - 38 °F 82% 29.83 in 25 mi WSW 8.9 mph - -   Partly Cloudy
1:00 AM 42.8 °F 37.5 °F 39.2 °F 87% 29.80 in 6.2 mi WSW 9.2 mph - N/A   Mostly Cloudy
1:30 AM 41.0 °F 37.1 °F 37.4 °F 87% 29.80 in 6.2 mi SW 5.8 mph - N/A   Mostly Cloudy
2:00 AM 41.0 °F 35.8 °F 39.2 °F 93% 29.77 in 6.2 mi SW 8.1 mph - N/A   Mostly Cloudy
2:30 AM 41.0 °F 35.8 °F 39.2 °F 93% 29.77 in 6.2 mi SW 8.1 mph - N/A   Mostly Cloudy
3:00 AM 41.0 °F 35.8 °F 39.2 °F 93% 29.74 in 6.2 mi SW 8.1 mph - N/A   Mostly Cloudy
3:30 AM 41.0 °F 35.8 °F 39.2 °F 93% 29.74 in 6.2 mi SW 8.1 mph - N/A Rain Light Rain Showers
4:00 AM 41.0 °F 37.1 °F 39.2 °F 93% 29.71 in 6.2 mi SW 5.8 mph - N/A   Overcast
4:30 AM 41.0 °F 37.1 °F 41.0 °F 100% 29.68 in 6.2 mi SW 5.8 mph - N/A Rain Light Rain
5:00 AM 41.0 °F 35.8 °F 41.0 °F 100% 29.68 in 6.2 mi WSW 8.1 mph - N/A Rain Light Rain
5:30 AM 41.0 °F 35.8 °F 39.2 °F 93% 29.65 in 6.2 mi SW 8.1 mph - N/A Rain Light Rain
6:00 AM 41.0 °F 35.2 °F 39.2 °F 93% 29.65 in 6.2 mi SW 9.2 mph - N/A   Mostly Cloudy
6:30 AM 41.0 °F 35.8 °F 41.0 °F 100% 29.62 in 6.2 mi SW 8.1 mph - N/A Rain Light Rain
7:00 AM 41 °F - 41 °F 99% 29.65 in 9 mi WSW 4.5 mph - - Rain Light Rain
7:00 AM 41.0 °F 38.0 °F 41.0 °F 100% 29.62 in 6.2 mi WSW 4.6 mph - N/A Rain Light Rain
7:30 AM 41.0 °F 39.0 °F 41.0 °F 100% 29.62 in 6.2 mi WNW 3.5 mph - N/A Rain Light Rain
8:00 AM 41.0 °F 38.0 °F 41.0 °F 100% 29.62 in 6.2 mi NW 4.6 mph - N/A Rain Light Rain
8:30 AM 41.0 °F - 39.2 °F 93% 29.59 in 6.2 mi Variable 2.3 mph - N/A Rain Light Rain
9:00 AM 41.0 °F - 39.2 °F 93% 29.59 in 6.2 mi Calm Calm - N/A Rain Light Rain
9:30 AM 41.0 °F - 39.2 °F 93% 29.56 in 6.2 mi NNW 2.3 mph - N/A   Mostly Cloudy
10:00 AM 42.8 °F 38.0 °F 41.0 °F 93% 29.56 in 6.2 mi North 8.1 mph - N/A   Mostly Cloudy
10:30 AM 42.8 °F 38.0 °F 41.0 °F 93% 29.56 in 6.2 mi North 8.1 mph - N/A   Mostly Cloudy
11:00 AM 44.6 °F 38.4 °F 41.0 °F 87% 29.53 in 6.2 mi North 12.7 mph - N/A   Mostly Cloudy
11:30 AM 44.6 °F 38.1 °F 37.4 °F 76% 29.53 in 6.2 mi North 13.8 mph - N/A   Mostly Cloudy
12:00 PM 44.6 °F 37.2 °F 37.4 °F 76% 29.53 in 6.2 mi North 17.3 mph - N/A   Mostly Cloudy
12:30 PM 46.4 °F 40.4 °F 35.6 °F 66% 29.53 in 6.2 mi North 13.8 mph - N/A   Mostly Cloudy
1:00 PM 47 °F - 38 °F 60%  in 31 mi NNW 17.9 mph - -   Partly Cloudy
1:00 PM 46.4 °F 39.2 °F 37.4 °F 71% 29.50 in 6.2 mi NNW 18.4 mph - N/A   Mostly Cloudy
1:30 PM 48.2 °F - 39.2 °F 71% 29.50 in 6.2 mi NNW 17.3 mph - N/A   Scattered Clouds
2:00 PM 50.0 °F - 35.6 °F 58% 29.50 in 6.2 mi NNW 23.0 mph 34.5 mph N/A   Scattered Clouds
2:30 PM 51.8 °F - 35.6 °F 54% 29.47 in 6.2 mi NW 23.0 mph - N/A   Scattered Clouds
3:00 PM 51.8 °F - 35.6 °F 54% 29.47 in 6.2 mi NNW 23.0 mph - N/A   Scattered Clouds
3:30 PM 51.8 °F - 39.2 °F 62% 29.47 in 6.2 mi NW 20.7 mph - N/A Rain Light Rain Showers
4:00 PM 48.2 °F - 42.8 °F 82% 29.47 in 6.2 mi NW 17.3 mph 29.9 mph N/A   Mostly Cloudy
4:30 PM 50.0 °F - 41.0 °F 71% 29.44 in 6.2 mi NW 16.1 mph - N/A   Mostly Cloudy
5:00 PM 48.2 °F - 42.8 °F 82% 29.44 in 6.2 mi WNW 19.6 mph - N/A   Mostly Cloudy
5:30 PM 48.2 °F - 42.8 °F 82% 29.44 in 6.2 mi NW 17.3 mph - N/A   Mostly Cloudy
6:00 PM 48.2 °F - 41.0 °F 76% 29.42 in 6.2 mi NW 17.3 mph - N/A   Mostly Cloudy
6:30 PM 44.6 °F 35.5 °F 41.0 °F 87% 29.42 in 6.2 mi NW 25.3 mph 39.1 mph N/A Rain Light Rain Showers
7:00 PM 46 °F - 42 °F 80% 29.44 in 19 mi NW 15.7 mph - - Rain Light Rain Showers
7:00 PM 46.4 °F 39.8 °F 42.8 °F 87% 29.42 in 6.2 mi NW 16.1 mph - N/A   Mostly Cloudy
7:30 PM 48.2 °F - 41.0 °F 76% 29.42 in 6.2 mi NW 18.4 mph - N/A   Mostly Cloudy
8:00 PM 48.2 °F - 39.2 °F 71% 29.42 in 6.2 mi NW 25.3 mph 38.0 mph N/A   Scattered Clouds
8:30 PM 46.4 °F 38.7 °F 39.2 °F 76% 29.42 in 6.2 mi NW 20.7 mph 32.2 mph N/A   Mostly Cloudy
9:00 PM 44.6 °F 35.9 °F 39.2 °F 81% 29.42 in 6.2 mi NW 23.0 mph - N/A Rain Light Rain Showers
9:30 PM 44.6 °F 36.4 °F 41.0 °F 87% 29.42 in 6.2 mi NW 20.7 mph - N/A Rain Light Rain Showers
10:00 PM 44.6 °F 35.7 °F 41.0 °F 87% 29.42 in 6.2 mi NW 24.2 mph - N/A Rain Light Rain Showers
10:30 PM 44.6 °F 35.3 °F 41.0 °F 87% 29.42 in 6.2 mi NNW 26.5 mph - N/A Rain Light Rain Showers
11:00 PM 42.8 °F 33.3 °F 41.0 °F 93% 29.44 in 6.2 mi NNW 24.2 mph 35.7 mph N/A Rain Light Rain Showers
11:30 PM 42.8 °F 33.3 °F 39.2 °F 87% 29.44 in 6.2 mi NNW 24.2 mph - N/A   Mostly Cloudy